Regional Weather Roundup
Issued by NWS

Home | Current Version | Previous Version | Text Only | Print | Product List | Glossary On
Versions: 1 2 3 4 5 6 7 8 9 10 11 12 13 14 15 16 17 18 19 20 21 22 23 24 25 26 27 28 29 30 31 32 33 34 35 36 37 38 39 40 41 42 43 44 45 46 47 48 49 50
000
ASUS43 KIND 200009
RWRIN

WEATHER ROUNDUP FOR INDIANA
NATIONAL WEATHER SERVICE INDIANAPOLIS IN
800 PM EDT SUN APR 19 2015

NOTE: "FAIR" INDICATES FEW OR NO CLOUDS BELOW 12,000 FEET WITH NO
SIGNIFICANT WEATHER AND/OR OBSTRUCTIONS TO VISIBILITY.

* - STATION DOES NOT REPORT WEATHER SUCH AS PRECIPITATION OR FOG.

+ - STATION NOT QUALITY CONTROLLED BY THE NATIONAL WEATHER SERVICE.
    USE DATA WITH CAUTION...ESPECIALLY DEWPOINT AND RELATIVE
    HUMIDITY OBSERVATIONS.

INZ001>003-010>013-019-020-200100-
NORTHWEST INDIANA

CITY           SKY/WX    TMP DP  RH WIND       PRES   REMARKS
GARY /AIRPORT/ RAIN      54  50  87 E8        29.44F
KNOX *+        CLOUDY    50  46  87 NE7       29.40F
LA PORTE +     LGT RAIN  54  54 100 E8        29.43F
6HR MIN TEMP:  54; 6HR MAX TEMP:  69; 6HR PCP:  0.50;

MICHIGAN CITY+ LGT RAIN  52  52 100 E3        29.43F
MONTICELLO +   RAIN      54  53  98 E7        29.37F
6HR MIN TEMP:  54; 6HR MAX TEMP:  55; 6HR PCP:  0.63;

RENSSELAER +   LGT RAIN  54  54 100 NE15      29.39F
VALPARAISO     LGT RAIN  52  51  97 E13       29.42F FOG
6HR MIN TEMP:  52; 6HR MAX TEMP:  68; 6HR PCP:  0.52;


$$

LMZ046-743>745-200100-
SOUTHERN LAKE MICHIGAN

STATION/POSITION TIME  TEMP WIND        PRES
                       AIR  DIR/SP/G
                 (UTC) (F)  (DEG/KT/KT) (MB)
BURNS HARBOR     0000   50   60/  9/ 11  997.3F
MICHIGAN CITY    0000   53   60/  9/ 12   N/A
4NW MICH CITY    0000   48   70/  8/  8   N/A

$$

INZ004-005-014>016-021>024-200100-
NORTH CENTRAL INDIANA

CITY           SKY/WX    TMP DP  RH WIND       PRES   REMARKS
GOSHEN         RAIN      53  51  93 E20G30    29.43F FOG
6HR MIN TEMP:  52; 6HR MAX TEMP:  65; 6HR PCP:  0.56;

LOGANSPORT +   DRIZZLE   52  52 100 NE6       29.38F
PERU/GRISSOM   DRIZZLE   55  54  96 NE3       29.36F
6HR MIN TEMP:  54; 6HR MAX TEMP:  56; 6HR PCP:  1.09;

ROCHESTER +    RAIN      55  55 100 E12G20    29.39F
SOUTH BEND     LGT RAIN  55  52  89 E17G26    29.43F FOG
6HR MIN TEMP:  53; 6HR MAX TEMP:  66; 6HR PCP:  0.56;

WARSAW +       HVY RAIN  52  52 100 E15G24    29.40F

$$

INZ006>009-017-018-025>027-200100-
NORTHEAST INDIANA

CITY           SKY/WX    TMP DP  RH WIND       PRES   REMARKS
ANGOLA *+      CLOUDY    48  48 100 E12       29.51F
AUBURN +       RAIN      52  50  93 E16G25    29.45F
FORT WAYNE     LGT RAIN  55  54  96 E20       29.41F FOG
6HR MIN TEMP:  51; 6HR MAX TEMP:  63; 6HR PCP:  0.84;

HUNTINGTON +   DRIZZLE   57  54  89 E14G22    29.38F
6HR MIN TEMP:  51; 6HR MAX TEMP:  60; 6HR PCP:  1.12;


$$

INZ028-029-035-036-043>045-051>053-200100-
WEST CENTRAL INDIANA

CITY           SKY/WX    TMP DP  RH WIND       PRES   REMARKS
CRAWFORDSVL +  CLOUDY    58  56  94 E5        29.38F FOG
6HR MIN TEMP:  54; 6HR MAX TEMP:  58; 6HR PCP:  0.31;

GREENCASTLE +  HVY RAIN  61  55  82 SE6       29.39F VSB 1
LAFAYETTE      LGT RAIN  55  54  96 E10       29.37F FOG
6HR MIN TEMP:  53; 6HR MAX TEMP:  57; 6HR PCP:  0.42;

TERRE HAUTE    LGT RAIN  63  61  93 SW15      29.38F
6HR MIN TEMP:  59; 6HR MAX TEMP:  64; 6HR PCP:  0.39;


$$

INZ030>032-037>040-046>048-054>057-064-065-200100-
CENTRAL INDIANA

CITY           SKY/WX    TMP DP  RH WIND       PRES   REMARKS
CP ATTERBURY + RAIN      63  61  94 S5        29.41F
COLUMBUS       PTCLDY    64  59  82 S7        29.41F
FISHERS *+     CLOUDY    61  61 100 S7        29.39F
FRANKFORT +    CLOUDY    57  57 100 NE3       29.40F
6HR MIN TEMP:  55; 6HR MAX TEMP:  59; 6HR PCP:  0.58;

GREENWOOD *+   CLOUDY    63  59  88 S8        29.41F
INDIANAPOLIS   CLOUDY    62  59  90 S8        29.38F
6HR MIN TEMP:  60; 6HR MAX TEMP:  63; 6HR PCP:  0.40;

-EAGLE CREEK   CLOUDY    62  60  93 SW5       29.38F
6HR MIN TEMP:  56; 6HR MAX TEMP:  62; 6HR PCP:  0.47;

KOKOMO *+      CLOUDY    55  54  94 NW7       29.37F
6HR MIN TEMP:  55; 6HR MAX TEMP:  57; 6HR PCP:  0.86;

MARION +       CLOUDY    61  61 100 S14G22    29.38F
MT COMFORT *+  CLOUDY    63 N/A N/A S10       29.41S
SHELBYVILLE    CLOUDY    66  62  87 S7        29.40F
6HR MIN TEMP:  61; 6HR MAX TEMP:  67; 6HR PCP:  0.39;

ZIONSVILLE +   CLOUDY    60  57  89 CALM      29.40S
6HR MIN TEMP:  56; 6HR MAX TEMP:  60; 6HR PCP:  0.66;


$$

INZ033-034-041-042-049-050-058-059-200100-
EAST CENTRAL INDIANA

CITY           SKY/WX    TMP DP  RH WIND       PRES   REMARKS
MUNCIE         CLOUDY    64  61  90 S10       29.39F
6HR MIN TEMP:  59; 6HR MAX TEMP:  64; 6HR PCP:  0.75;


$$

INZ060-061-067>069-081>083-085>088-200100-
SOUTHWEST INDIANA

CITY           SKY/WX    TMP DP  RH WIND       PRES   REMARKS
EVANSVILLE     LGT RAIN  63  60  90 SW15      29.48R
6HR MIN TEMP:  63; 6HR MAX TEMP:  69; 6HR PCP:  0.48;

HUNTINGBURG *+ CLOUDY    64  61  88 SW12      29.43F
6HR MIN TEMP:  64; 6HR MAX TEMP:  68; 6HR PCP:  0.46;

WASHINGTON +   LGT RAIN  65  62  88 S13       29.39F
6HR MIN TEMP:  62; 6HR MAX TEMP:  67; 6HR PCP:  0.06;


$$

INZ062-063-066-070>080-084-089>092-200100-
SOUTH CENTRAL AND SOUTHEAST INDIANA

CITY           SKY/WX    TMP DP  RH WIND       PRES   REMARKS
BLOOMINGTON    LGT RAIN  64  62  93 S6        29.40F
6HR MIN TEMP:  61; 6HR MAX TEMP:  65; 6HR PCP:  0.23;

MADISON *+     CLOUDY    64  61  88 S8        29.45F
NORTH VERNON + CLOUDY    66  66 100 SE6       29.43F

$$




USA.gov is the U.S. government's official web portal to all federal, state and local government web resources and services.